• In Deutschland
  • Länderverzeichnis
  • Für 7 Tage
  • Wassertemperatur
  • Satellitenkarten
  • Wetterkarte
  • Widgets
  • user-avatar
    Anmelden

    Stündliche Wetter Hinterzarten

    Heute, 18 Januar, Donnerstag

    Zeit Temperatur Niederschläge Wind Luftdruck Luftfeuchtigkeit
    00:00 -5°C° 0,3 mm 6 m/S 668 mmHg 84%
    01:00 -5°C° 0,3 mm 5 m/S 668 mmHg 85%
    02:00 -5°C° 0,3 mm 6 m/S 668 mmHg 85%
    03:00 -5°C° 0,3 mm 6 m/S 668 mmHg 84%
    04:00 -4°C° 0,3 mm 6 m/S 667 mmHg 84%
    05:00 -4°C° 0,5 mm 6 m/S 667 mmHg 83%
    06:00 -4°C° 0,5 mm 7 m/S 666 mmHg 82%
    07:00 -4°C° 0,5 mm 7 m/S 665 mmHg 81%
    08:00 -3°C° 1 mm 7 m/S 665 mmHg 82%
    09:00 -4°C° 1 mm 8 m/S 665 mmHg 82%
    10:00 -2°C° 1 mm 8 m/S 665 mmHg 83%
    11:00 -2°C° 0,6 mm 8 m/S 664 mmHg 83%
    12:00 -1°C° 0,6 mm 8 m/S 664 mmHg 84%
    13:00 -1°C° 0,6 mm 8 m/S 664 mmHg 84%
    14:00 -1°C° 0,5 mm 8 m/S 664 mmHg 85%
    15:00 -1°C° 0,5 mm 7 m/S 664 mmHg 86%
    16:00 -1°C° 0,5 mm 7 m/S 664 mmHg 87%
    17:00 -1°C° 0,9 mm 7 m/S 664 mmHg 88%
    18:00 -1°C° 0,9 mm 6 m/S 664 mmHg 88%
    19:00 -1°C° 0,9 mm 6 m/S 664 mmHg 89%
    20:00 +1°C° 1 mm 6 m/S 664 mmHg 89%
    21:00 +1°C° 1 mm 6 m/S 664 mmHg 89%
    22:00 +1°C° 1 mm 6 m/S 664 mmHg 89%
    23:00 +1°C° 0,5 mm 6 m/S 664 mmHg 89%

    Morgen, 19 Januar, Freitag

    Zeit Temperatur Niederschläge Wind Luftdruck Luftfeuchtigkeit
    00:00 0°C° 0,5 mm 5 m/S 664 mmHg 89%
    01:00 0°C° 0,5 mm 5 m/S 664 mmHg 89%
    02:00 -1°C° 0,5 mm 5 m/S 664 mmHg 88%
    03:00 -1°C° 0,5 mm 5 m/S 664 mmHg 87%
    04:00 -2°C° 0,5 mm 5 m/S 664 mmHg 86%
    05:00 -2°C° 0,4 mm 5 m/S 665 mmHg 87%
    06:00 -2°C° 0,4 mm 4 m/S 665 mmHg 87%
    07:00 -3°C° 0,4 mm 4 m/S 665 mmHg 87%
    08:00 -2°C° 0,3 mm 3 m/S 666 mmHg 87%
    09:00 -2°C° 0,3 mm 3 m/S 666 mmHg 86%
    10:00 -2°C° 0,3 mm 3 m/S 666 mmHg 86%
    11:00 -2°C° 0,3 mm 3 m/S 666 mmHg 83%
    12:00 -3°C° 0,3 mm 4 m/S 667 mmHg 81%
    13:00 -2°C° 0,3 mm 4 m/S 667 mmHg 79%
    14:00 -2°C° 0,2 mm 4 m/S 667 mmHg 79%
    15:00 -3°C° 0,2 mm 4 m/S 667 mmHg 80%
    16:00 -2°C° 0,2 mm 3 m/S 667 mmHg 81%
    17:00 -4°C° 0,1 mm 3 m/S 667 mmHg 84%
    18:00 -3°C° 0,1 mm 2 m/S 666 mmHg 86%
    19:00 -4°C° 0,1 mm 2 m/S 666 mmHg 89%
    20:00 -4°C° 0,6 mm 2 m/S 666 mmHg 90%
    21:00 -4°C° 0,6 mm 2 m/S 666 mmHg 91%
    22:00 -4°C° 0,6 mm 3 m/S 666 mmHg 92%
    23:00 -5°C° 0,5 mm 3 m/S 667 mmHg 91%

    übermorgen, 20 Januar, Samstag

    Zeit Temperatur Niederschläge Wind Luftdruck Luftfeuchtigkeit
    00:00 -5°C° 0,5 mm 4 m/S 667 mmHg 90%
    01:00 -5°C° 0,5 mm 4 m/S 667 mmHg 89%
    02:00 -5°C° 0,4 mm 4 m/S 667 mmHg 90%
    03:00 -5°C° 0,4 mm 4 m/S 667 mmHg 90%
    04:00 -5°C° 0,4 mm 4 m/S 667 mmHg 90%
    05:00 -5°C° 0,4 mm 4 m/S 667 mmHg 90%
    06:00 -6°C° 0,4 mm 5 m/S 667 mmHg 90%
    07:00 -6°C° 0,4 mm 5 m/S 667 mmHg 89%
    08:00 -5°C° 0,3 mm 4 m/S 667 mmHg 89%
    09:00 -5°C° 0,3 mm 4 m/S 667 mmHg 88%
    10:00 -5°C° 0,3 mm 4 m/S 667 mmHg 88%
    11:00 -5°C° 0,6 mm 4 m/S 666 mmHg 88%
    12:00 -4°C° 0,6 mm 3 m/S 666 mmHg 89%
    13:00 -4°C° 0,6 mm 3 m/S 666 mmHg 90%
    14:00 -4°C° 0,8 mm 3 m/S 665 mmHg 91%
    15:00 -3°C° 0,8 mm 2 m/S 665 mmHg 91%
    16:00 -3°C° 0,8 mm 2 m/S 664 mmHg 92%
    17:00 -3°C° 0,9 mm 2 m/S 664 mmHg 93%
    18:00 -3°C° 0,9 mm 2 m/S 665 mmHg 93%
    19:00 -1°C° 0,9 mm 1 m/S 665 mmHg 93%
    20:00 -4°C° 0,4 mm 2 m/S 665 mmHg 94%
    21:00 -4°C° 0,4 mm 2 m/S 666 mmHg 94%
    22:00 -4°C° 0,4 mm 2 m/S 666 mmHg 94%
    23:00 -3°C° 0,1 mm 1 m/S 667 mmHg 94%

    21 Januar, Sonntag

    Zeit Temperatur Niederschläge Wind Luftdruck Luftfeuchtigkeit
    00:00 -4°C° 0,1 mm 1 m/S 667 mmHg 95%
    01:00 -6°C° 0,1 mm 1 m/S 667 mmHg 95%
    02:00 -6°C° 0 mm 1 m/S 668 mmHg 95%
    03:00 -6°C° 0 mm 1 m/S 668 mmHg 94%
    04:00 -6°C° 0 mm 1 m/S 669 mmHg 94%
    05:00 -6°C° 0 mm 1 m/S 669 mmHg 94%
    06:00 -6°C° 0 mm 1 m/S 670 mmHg 94%
    07:00 -6°C° 0 mm 1 m/S 670 mmHg 93%
    08:00 -4°C° 0 mm 1 m/S 671 mmHg 93%
    09:00 -3°C° 0 mm 1 m/S 671 mmHg 93%
    10:00 -2°C° 0 mm 1 m/S 672 mmHg 92%
    11:00 -2°C° 0,2 mm 1 m/S 672 mmHg 93%
    12:00 -1°C° 0,2 mm 1 m/S 672 mmHg 93%
    13:00 0°C° 0,2 mm 1 m/S 672 mmHg 94%
    14:00 0°C° 0,4 mm 1 m/S 671 mmHg 94%
    15:00 -2°C° 0,4 mm 2 m/S 671 mmHg 95%
    16:00 -2°C° 0,4 mm 2 m/S 671 mmHg 95%
    17:00 -2°C° 1 mm 2 m/S 670 mmHg 96%
    18:00 -2°C° 1 mm 3 m/S 670 mmHg 96%
    19:00 -2°C° 1 mm 3 m/S 670 mmHg 96%
    20:00 -1°C° 1,8 mm 3 m/S 670 mmHg 97%
    21:00 -2°C° 1,8 mm 4 m/S 670 mmHg 97%
    22:00 -1°C° 1,8 mm 5 m/S 670 mmHg 97%
    23:00 -1°C° 1,3 mm 5 m/S 670 mmHg 97%

    22 Januar, Montag

    Zeit Temperatur Niederschläge Wind Luftdruck Luftfeuchtigkeit
    00:00 0°C° 1,3 mm 5 m/S 670 mmHg 97%
    01:00 0°C° 1,3 mm 5 m/S 670 mmHg 97%
    02:00 0°C° 0,7 mm 4 m/S 671 mmHg 97%
    03:00 0°C° 0,7 mm 4 m/S 671 mmHg 97%
    04:00 0°C° 0,7 mm 4 m/S 671 mmHg 97%
    05:00 +1°C° 0,6 mm 3 m/S 671 mmHg 97%
    06:00 +1°C° 0,6 mm 3 m/S 672 mmHg 97%
    07:00 +1°C° 0,6 mm 3 m/S 672 mmHg 97%
    08:00 +1°C° 0,2 mm 3 m/S 672 mmHg 97%
    09:00 +1°C° 0,2 mm 3 m/S 673 mmHg 97%
    10:00 +3°C° 0,2 mm 2 m/S 673 mmHg 97%
    11:00 +2°C° 1,2 mm 3 m/S 673 mmHg 96%
    12:00 +2°C° 1,2 mm 3 m/S 673 mmHg 96%
    13:00 +2°C° 1,2 mm 3 m/S 673 mmHg 96%
    14:00 +2°C° 0,9 mm 3 m/S 674 mmHg 96%
    15:00 +2°C° 0,9 mm 3 m/S 674 mmHg 96%
    16:00 +3°C° 0,9 mm 3 m/S 674 mmHg 95%
    17:00 +3°C° 0,2 mm 3 m/S 674 mmHg 96%
    18:00 +3°C° 0,2 mm 3 m/S 674 mmHg 96%
    19:00 +3°C° 0,2 mm 3 m/S 675 mmHg 96%
    20:00 +3°C° 0 mm 3 m/S 675 mmHg 96%
    21:00 +2°C° 0 mm 3 m/S 675 mmHg 95%
    22:00 +2°C° 0 mm 3 m/S 675 mmHg 95%
    23:00 +2°C° 0,1 mm 3 m/S 675 mmHg 95%

    23 Januar, Dienstag

    Zeit Temperatur Niederschläge Wind Luftdruck Luftfeuchtigkeit
    00:00 +2°C° 0,1 mm 3 m/S 675 mmHg 95%
    01:00 +2°C° 0,1 mm 3 m/S 675 mmHg 94%
    02:00 +2°C° 0,2 mm 3 m/S 675 mmHg 94%
    03:00 +2°C° 0,2 mm 3 m/S 676 mmHg 94%
    04:00 +2°C° 0,2 mm 3 m/S 676 mmHg 94%
    05:00 +2°C° 0,1 mm 3 m/S 676 mmHg 94%
    06:00 +2°C° 0,1 mm 3 m/S 676 mmHg 94%
    07:00 +1°C° 0,1 mm 3 m/S 677 mmHg 94%
    08:00 +2°C° 0 mm 3 m/S 677 mmHg 94%
    09:00 +2°C° 0 mm 3 m/S 678 mmHg 93%
    10:00 +3°C° 0 mm 2 m/S 678 mmHg 92%
    11:00 +4°C° 0 mm 2 m/S 678 mmHg 92%
    12:00 +4°C° 0 mm 2 m/S 678 mmHg 91%
    13:00 +4°C° 0 mm 2 m/S 679 mmHg 91%
    14:00 +5°C° 0 mm 2 m/S 679 mmHg 91%
    15:00 +5°C° 0 mm 2 m/S 679 mmHg 91%
    16:00 +5°C° 0 mm 2 m/S 679 mmHg 91%
    17:00 +4°C° 0 mm 2 m/S 679 mmHg 93%
    18:00 +4°C° 0 mm 1 m/S 679 mmHg 94%
    19:00 +3°C° 0 mm 1 m/S 680 mmHg 95%
    20:00 +3°C° 0 mm 1 m/S 680 mmHg 95%
    21:00 +3°C° 0 mm 1 m/S 680 mmHg 95%
    22:00 +3°C° 0 mm 1 m/S 680 mmHg 95%
    23:00 +2°C° 0 mm 1 m/S 679 mmHg 95%
    Mehr zeigen